Terug naar catalogus

GEESAT 6-05

ActiefCommunicatieLEO
NORAD 65717·PAYLOAD·🇨🇳 China

Gelanceerd Sep 24, 2025 vanaf Yellow Sea Launch Area

Loading…

Volgende Passages (komende 24 uur)

TLE

VersSource: Space-Track

Epoch: Sep 14, 2026, 08:48 UTC

1 65717U 25214F   26257.36705521  .00001048  00000-0  15303-3 0  9999
2 65717  49.9789 254.9933 0012546 196.9412 163.1109 14.83605453 52747

Volg GEESAT 6-05 in realtime met AllMySat

Download on the App Store